Regional Weather Roundup
Issued by NWS

Home | Current Version | Previous Version | Text Only | Print | Product List | Glossary On
Versions: 1 2 3 4 5 6 7 8 9 10 11 12 13 14 15 16 17 18 19 20 21 22 23 24 25 26 27 28 29 30 31 32 33 34 35 36 37 38 39 40 41 42 43 44 45 46 47 48 49 50
000
ASUS44 KJAN 182203
RWRMS

MISSISSIPPI HOURLY WEATHER ROUNDUP
NATIONAL WEATHER SERVICE JACKSON MS
500 PM CDT FRI APR 18 2014

NOTE: "FAIR: INDICATES FEW OR NO CLOUDS BELOW 12,000 FEET WITH NO
SIGNIFICANT WEATHER AND/OR OBSTRUCTIONS TO VISIBILITY.

MSZ001>002-007>008-010>013-018>021-025>028-034>036-182300-
NORTHWEST MISSISSIPPI

CITY           SKY/WX    TMP DP  RH WIND       PRES   REMARKS
CLARKSDALE       N/A     73  54  49 NE12      30.15S
CLEVELAND      MOCLDY    73  55  52 NE9       30.12F
GREENWOOD      SUNNY     71  54  54 E10       30.14S
GREENVILLE     CLOUDY    73  52  47 NE8       30.13F
GRENADA        CLOUDY    64  54  68 E8        30.16S
OLIVE BRANCH   PTSUNNY   70  52  52 NE9       30.16F
OXFORD         PTSUNNY   64  50  59 SE5       30.18S
TUNICA         CLEAR     72  50  46 NE9       30.15S
$$

MSZ003>006-009-014>017-022>024-029>033-037>039-182300-
NORTHEAST MISSISSIPPI

CITY           SKY/WX    TMP DP  RH WIND       PRES   REMARKS
BELMONT        MOCLDY    62  52  71 NW5       30.17F
COLUMBUS AFB   CLOUDY    64  54  68 N10       30.16S
CORINTH        FAIR      66  50  55 S5        30.17F
GOLDN TRIANGLE PTSUNNY   63  52  67 N10       30.18S
STARKVILLE     CLOUDY    64  54  68 N9        30.15F
TUPELO         CLOUDY    64  53  67 E10       30.17F
$$

MSZ040-058-182300-
CENTRAL MISSISSIPPI

CITY           SKY/WX    TMP DP  RH WIND       PRES   REMARKS
JACKSON INTL   PTSUNNY   71  54  54 N10       30.11S
JACKSON HAWKNS CLOUDY    71  54  54 MISG      30.11F
MERIDIAN KEY   CLOUDY    61  54  77 N12       30.13S
MERIDIAN NAS   CLOUDY    61  54  77 NE6       30.14S
RAYMOND        MOCLDY    72  66  83 NE5       30.11S
VICKSBURG      CLOUDY    71  58  63 E7        30.11S
$$

MSZ059>079-182300-
SOUTH MISSISSIPPI

CITY           SKY/WX    TMP DP  RH WIND       PRES   REMARKS
BROOKHAVEN     MOCLDY    72  55  56 N8        30.11S
COLUMBIA       CLOUDY    68  57  68 MISG      30.10R
HATTIESBURG    PTSUNNY   63  56  78 N9        30.11S
MCCOMB         MOSUNNY   74  54  49 NE9       30.08S
NATCHEZ        PTSUNNY   70  59  68 NE6       30.10R
PINE BELT      CLOUDY    63  54  72 N12G17    30.11R
$$

MSZ080>082-182300-
COASTAL MISSISSIPPI

CITY           SKY/WX    TMP DP  RH WIND       PRES   REMARKS
BAY ST LOUIS     N/A     63  55  77 N13G20    30.08R
BILOXI         CLOUDY    63  57  82 N13G22    30.05S
PASCAGOULA     CLOUDY    61  56  83 N12       30.04S
GULFPORT       CLOUDY    66  56  70 N14       30.05R
$$



USA.gov is the U.S. government's official web portal to all federal, state and local government web resources and services.